Regional Weather Roundup
Issued by NWS San Diego, CA

Home | Current Version | Previous Version | Text Only | Print | Product List | Glossary On
Versions: 1 2 3 4 5 6 7 8 9 10 11 12 13 14 15 16 17 18 19 20 21 22 23 24 25 26 27 28 29 30 31 32 33 34 35 36 37 38 39 40 41 42 43 44 45 46 47 48 49 50
000
ASUS46 KSGX 281110
RWRSGX

SAN DIEGO HOURLY WEATHER ROUNDUP
NATIONAL WEATHER SERVICE SAN DIEGO CA
400 AM PDT MON JUL 28 2014

NOTE: "FAIR" INDICATES FEW OR NO CLOUDS BELOW 12,000 FEET WITH NO
SIGNIFICANT WEATHER AND/OR OBSTRUCTIONS TO VISIBILITY.

CAZ042-043-060-061-PZZ750-775-281200-

GREATER SAN DIEGO AREA

CITY           SKY/WX    TMP DP  RH WIND       PRES   REMARKS
LINDBERGH FLD  MOCLDY    72  66  81 N3        30.03F
POINT LOMA       N/A     68  65  92 NW5         N/A
NATIONAL CITY    N/A     71  68  90 CALM      30.03S
CHULA VISTA      N/A     71  68  92 CALM      29.96S
IMPERIAL BEACH PTCLDY    70  67  90 NW5       30.02F
BROWN FIELD    MOCLDY    69  66  90 CALM      30.03S
MIRAMAR MCAS   MOCLDY    67  65  93 W3        30.03S
MONTGOMERY FLD CLOUDY    70  66  87 CALM      30.03F

$$

NORTH SAN DIEGO COUNTY

CITY           SKY/WX    TMP DP  RH WIND       PRES   REMARKS
CAMP PENDLETON CLOUDY    70  65  84 MISG      30.02S HAZE
OCEANSIDE AP   CLOUDY    71  66  84 CALM      30.02R
VISTA            N/A     70  66  86 CALM      30.01R
CARLSBAD       MOCLDY    70  66  87 CALM      30.03R
DEL MAR          N/A     69  68  96 CALM      30.05R
LA JOLLA SCRIP   N/A     69  68  98 CALM      30.00S
FALLBROOK        N/A     68  67  96 CALM      30.04R
ESCONDIDO        N/A     71  65  81 W5        30.04R
SAN MARCOS       N/A     69  65  85 CALM      30.01R
POWAY            N/A     68  63  84 CALM      30.03S
R. PENASQUITOS   N/A     70  67  90 CALM      30.03R

$$

EAST SAN DIEGO COUNTY

CITY           SKY/WX    TMP DP  RH WIND       PRES   REMARKS
RAMONA         PTCLDY    64  59  83 W3        30.06S
SANTEE LAKES     N/A     68  62  81 CALM      30.03S
GILLESPIE FLD  FAIR      70  63  78 CALM      30.05S
LA MESA          N/A     69  67  93 CALM      29.95F
JAMUL            N/A     66  63  89 CALM      30.00S
DESCANSO N       N/A     65  58  78 CALM      29.87S
MT. LAGUNA OBS   N/A     63  54  71 NW1       29.85S
CAMPO            N/A     63  55  75 NE6       30.08S

$$

ORANGE COUNTY AND THE LOS ANGELES BASIN

CITY           SKY/WX    TMP DP  RH WIND       PRES   REMARKS
JOHN WAYNE AP  CLOUDY    73  64  73 CALM      30.02S
LAGUNA BEACH     N/A     71  68  92 CALM      29.98F
LAKE FOREST FR   N/A     69  59  69 CALM      29.91S
SANTA ANA        N/A     70  67  90 CALM      29.98S
HUNTINGTON BCH   N/A     69  66  91 NW3       30.04S
LOS ALAMITOS   MOCLDY    69  66  89 SW2       30.03S
FULLERTON      CLOUDY    71  65  81 S3        30.02S
LONG BEACH     CLOUDY    70  64  81 CALM      30.03R
L.A. AP        CLOUDY    68  65  90 W5        30.04R
L.A. DOWNTOWN  CLOUDY    68  63  84 CALM      30.03R

$$

THE INLAND EMPIRE

CITY           SKY/WX    TMP DP  RH WIND       PRES   REMARKS
CORONA         LGT RAIN  71  64  78 NW5       30.05R
CHINO          CLOUDY    72  56  57 W7        30.05R
ONTARIO        CLOUDY    76  39  26 W7        30.04R
RIVERSIDE AP   CLOUDY    75  56  51 W3        30.04R
RIV CYN CREST    N/A     76  57  53 NW1       30.02R
MORENO VALLEY    N/A     74  50  43 CALM        N/A
MARCH ARB      CLOUDY    75  42  31 CALM      30.06S
HORSETHIEF CYN   N/A     74  53  48 NW1       30.03R
PERRIS           N/A     72  60  67 S2        30.04S
MENIFEE          N/A     72  62  71 S1        30.12R
HEMET EAST       N/A     70  58  64 CALM      30.01R
FRENCH VALLEY  FAIR      68  59  73 SE3       30.07R
TEMECULA         N/A     70  65  84 E1        30.03R

$$

SAN BERNARDINO AND RIVERSIDE COUNTY MOUNTAINS

CITY           SKY/WX    TMP DP  RH WIND       PRES   REMARKS
BIG BEAR AP    MOCLDY    54  52  94 CALM      30.36S
BIG BEAR SHEA    N/A     55  50  83 CALM      30.03R
ANGELUS OAKS     N/A     62  53  74 MISG      29.87R
PINE COVE        N/A     61  54  77 N3        29.95S

$$

SOUTHERN DESERT INCLUDING THE COACHELLA VALLEY

CITY           SKY/WX    TMP DP  RH WIND       PRES   REMARKS
PALM SPRINGS   MOCLDY    90  58  33 NW8       29.93F
THERMAL        MOCLDY    85  65  51 CALM      29.86S
BLYTHE           N/A    N/A N/A N/A MISG      29.91R
IMPERIAL AP    CLEAR     86  60  41 SW7       29.87S
EL CENTRO NAS  CLEAR     87  60  40 SW10      29.87S
YUMA AZ        CLEAR     87  65  47 CALM      29.91R

$$

UPPER DESERT

CITY           SKY/WX    TMP DP  RH WIND       PRES   REMARKS
VICTORVILLE AP CLOUDY    75  63  64 CALM      30.09S
HESPERIA         N/A     75  60  59 CALM      30.03R
APPLE VALLEY     N/A     75  63  66 CALM      30.14S
GRAY BUTTE AP  NOT AVBL
PALMDALE       CLOUDY    80  36  20 SW6       30.08S
LANCASTER      CLOUDY    76  36  23 N6        30.07S
EDWARDS AFB    CLOUDY    82  54  37 NW7       30.05S
DAGGETT        CLOUDY    80  60  50 SW9       30.02S
29 PALMS N     CLOUDY    84  56  38 W7        30.08S
NEEDLES        CLEAR     89  54  30 N5        29.94R

$$

REGIONAL REPORTS

CITY           SKY/WX    TMP DP  RH WIND       PRES   REMARKS
SANTA BARBARA  CLOUDY    65  62  90 E8        30.02R
SANDBERG       CLOUDY    73  40  30 SW5       30.22S
MT. WILSON       N/A     68  32  26 SW5         N/A
LAS VEGAS NV   CLOUDY    82  61  48 SW7       30.02S
PHOENIX AZ     CLOUDY    86  60  41 SE9       29.98S
TIJUANA        MOCLDY    68  63  83 NW5       30.05S
ENSENADA NW      N/A     69  32  25 CALM      29.98F

$$

OFFSHORE ISLANDS

CITY           SKY/WX    TMP DP  RH WIND       PRES   REMARKS
CATALINA ARPT  CLOUDY    68  45  43 W7        30.07S
SAN NICOLAS IS CLOUDY   N/A N/A N/A CALM      30.03S

$$

MARINE AND OFFSHORE BUOY REPORTS

STATION/POSITION SKY/WX   TEMP    WIND        PRES    SWELL
                          AIR SEA DIR/SP/G            HT/PER/DIR
                          (F)     (DEG/KT/KT) (MB)    (FT/S/D)
TANNER BANKS               66 67  310/  8/ 10 1016.5R   3/290/ 8
S CLEMENTE BASIN           69 71  330/  6/  8 1016.3F   3/190/14
SAN NICOLAS IS.               67                N/A     2/180/14
SO. S. ROSA ISLA           65 67  300/ 10/ 10 1016.0R   3/ 8
W. S. BARBARA CH           63 64  300/ 14/ 14 1015.4R   3/300/ 9
M. S. BARBARA CH           63 63  210/ 10/ 12 1016.2R
S. MONICA BASIN            67 69  240/  4/  4 1016.4R   3/200/15
S PEDRO CHANNEL               67                N/A     2/170/14
DANA POINT                    70                N/A     2/190/15
CMP PENDLETON NS              71                N/A     2/210/14
OCEANSIDE OFFSHR              72                N/A     2/190/14
TORREY PINES OTR              71                N/A     2/200/14
LA JOLLA 1                 71 71  320/  2/  2 1016.7R
MISSION BAY BUOY              71                N/A     2/200/13
SAN DIEGO BAY                 74              1016.9F
POINT LOMA SOUTH              70                N/A     2/190/13

$$



USA.gov is the U.S. government's official web portal to all federal, state and local government web resources and services.